Mountain Fork River (Oklahoma), Eagleville (07339000)

StateOklahomaLatestPoor (547 cfs)
RiverMountain Fork RiverRatingObservedEstimated
Updated2026-05-05 14:30 (59 minutes ago)Flood - The river is flooding. Obstacles can be treacherous or deadly. The river should be avoided at this stage for casual trips and definitely for the inexperienced. Trips should be attempted only with protective gear and equipment.Flood(none)6184
Discharge547 cfs (median: 1130 cfs)High - The river is high and potentially dangerous, especially for the young and / or inexperienced. Normal stream obstacles are sometimes difficult to navigate. Extended distances can be attempted, but canoe travel may not be advisable.High(none)1052
Height1.93 feetGood - Conditions are ideal for a canoe or kayak. Boats typically will drag on fewer than one-quarter of riffles, if at all, and portages are unnecessary or rare. Normal float lengths can be attempted without a problem.Good(none)754
TrendFalling (rising over 24 hours)Low - River is low but can still be floated. Some riffles are okay but most come with significant dragging and might need a portage. Float lengths should be reduced to accommodate low flow, dragging, and portages.Low(none)708
USGSExternal icon USGS Site (External icon Duck Duck Go Maps)Poor - River is too low to float comfortably. Most or all riffles will drag or must be portaged and some obstacles (such as slick shelf rock) cause undue problems. Avoid the river at this stage for casual paddling trips.Poor(none)198

Trending Data

Plot Image

Trips for Mountain Fork River (Oklahoma), Eagleville (07339000)

DateStartEndDistanceConditionDischargeHeightFishingDetails
Click for details2003-07-06 Rereg Dam US 70 Total trip distance: 3.2 miles3.2 Good 363 None NoneNone Fillmore, Brian
Wann, Denny
Fillmore, Brian; Wann, Denny
No notes for this trip<i>No notes for this trip</i> USGS Gauge Data:
Eagleville (07339000)
Discharge: 363
Height:
<b>USGS Gauge Data:</b></br />Eagleville (07339000)<br />Discharge: 363<br />Height:
Source: FillmoreSource: Fillmore

A total of 1 rows are displayed.

Trip Summary for Mountain Fork River (Oklahoma), Eagleville (07339000)

Miles3.2
Trips1
People2
Dates1
Years1
Months1
Rows1
Sources1

Condition Descriptions

Fishing Conditions

Fish Species

Notes

Classic Trip List

The classic River Trips application is still available for use. It is updated with the new system using a data retrofit. It is no longer maintained. The original River Trips application is no longer updated (as of 1 Dec 2016) but can be checked for errors or for the condition of the data before it was converted to the new system.

Gauge Data Table

ObservationHeightDischargeMaximum
Discharge
Minimum
Discharge
Mean
Discharge
P05P10P20P25P50
(Median)
P75P80P90P95
2026-05-05 14:30 1.93 547 7850 (1973) 94 (1996) 1930 143 173 243 292 1130 2910 3360 5280 7060
2026-05-05 13:30 2.00 582 7850 (1973) 94 (1996) 1930 143 173 243 292 1130 2910 3360 5280 7060
2026-05-05 12:30 2.15 668 7850 (1973) 94 (1996) 1930 143 173 243 292 1130 2910 3360 5280 7060
2026-05-05 11:30 2.24 725 7850 (1973) 94 (1996) 1930 143 173 243 292 1130 2910 3360 5280 7060
2026-05-05 10:30 2.37 814 7850 (1973) 94 (1996) 1930 143 173 243 292 1130 2910 3360 5280 7060
2026-05-05 09:30 2.52 926 7850 (1973) 94 (1996) 1930 143 173 243 292 1130 2910 3360 5280 7060
2026-05-05 08:30 2.65 1030 7850 (1973) 94 (1996) 1930 143 173 243 292 1130 2910 3360 5280 7060
2026-05-05 07:30 2.83 1180 7850 (1973) 94 (1996) 1930 143 173 243 292 1130 2910 3360 5280 7060
2026-05-05 06:30 3.01 1340 7850 (1973) 94 (1996) 1930 143 173 243 292 1130 2910 3360 5280 7060
2026-05-05 05:30 3.20 1530 7850 (1973) 94 (1996) 1930 143 173 243 292 1130 2910 3360 5280 7060
2026-05-05 04:30 3.42 1750 7850 (1973) 94 (1996) 1930 143 173 243 292 1130 2910 3360 5280 7060
2026-05-05 03:30 3.64 1990 7850 (1973) 94 (1996) 1930 143 173 243 292 1130 2910 3360 5280 7060
2026-05-05 02:30 3.87 2250 7850 (1973) 94 (1996) 1930 143 173 243 292 1130 2910 3360 5280 7060
2026-05-05 01:30 4.11 2530 7850 (1973) 94 (1996) 1930 143 173 243 292 1130 2910 3360 5280 7060
2026-05-05 00:30 4.32 2780 7850 (1973) 94 (1996) 1930 143 173 243 292 1130 2910 3360 5280 7060
2026-05-04 23:30 4.40 2870 7850 (1973) 94 (1996) 1930 143 173 243 292 1130 2910 3360 5280 7060
2026-05-04 22:30 4.09 2510 8110 (1973) 101 (1998) 1900 140 199 365 412 950 3160 3410 4650 6600
2026-05-04 21:30 2.88 1220 8110 (1973) 101 (1998) 1900 140 199 365 412 950 3160 3410 4650 6600
2026-05-04 20:30 1.37 317 8110 (1973) 101 (1998) 1900 140 199 365 412 950 3160 3410 4650 6600
2026-05-04 19:30 0.85 166 8110 (1973) 101 (1998) 1900 140 199 365 412 950 3160 3410 4650 6600
2026-05-04 18:30 0.81 156 8110 (1973) 101 (1998) 1900 140 199 365 412 950 3160 3410 4650 6600
2026-05-04 17:30 0.82 158 8110 (1973) 101 (1998) 1900 140 199 365 412 950 3160 3410 4650 6600
2026-05-04 16:30 0.81 156 8110 (1973) 101 (1998) 1900 140 199 365 412 950 3160 3410 4650 6600
2026-05-04 15:30 0.81 156 8110 (1973) 101 (1998) 1900 140 199 365 412 950 3160 3410 4650 6600
2026-05-04 14:30 0.81 156 8110 (1973) 101 (1998) 1900 140 199 365 412 950 3160 3410 4650 6600
2026-05-04 13:30 0.83 161 8110 (1973) 101 (1998) 1900 140 199 365 412 950 3160 3410 4650 6600
2026-05-04 12:30 0.87 171 8110 (1973) 101 (1998) 1900 140 199 365 412 950 3160 3410 4650 6600
2026-05-04 11:30 0.83 161 8110 (1973) 101 (1998) 1900 140 199 365 412 950 3160 3410 4650 6600
2026-05-04 10:30 0.87 171 8110 (1973) 101 (1998) 1900 140 199 365 412 950 3160 3410 4650 6600
2026-05-04 09:30 0.87 171 8110 (1973) 101 (1998) 1900 140 199 365 412 950 3160 3410 4650 6600
2026-05-04 08:30 0.87 171 8110 (1973) 101 (1998) 1900 140 199 365 412 950 3160 3410 4650 6600
2026-05-04 07:30 0.87 171 8110 (1973) 101 (1998) 1900 140 199 365 412 950 3160 3410 4650 6600
2026-05-04 06:30 0.87 171 8110 (1973) 101 (1998) 1900 140 199 365 412 950 3160 3410 4650 6600
2026-05-04 05:30 0.87 171 8110 (1973) 101 (1998) 1900 140 199 365 412 950 3160 3410 4650 6600
2026-05-04 04:30 0.87 171 8110 (1973) 101 (1998) 1900 140 199 365 412 950 3160 3410 4650 6600
2026-05-04 03:30 0.87 171 8110 (1973) 101 (1998) 1900 140 199 365 412 950 3160 3410 4650 6600
2026-05-04 02:30 0.87 171 8110 (1973) 101 (1998) 1900 140 199 365 412 950 3160 3410 4650 6600
2026-05-04 01:30 0.87 171 8110 (1973) 101 (1998) 1900 140 199 365 412 950 3160 3410 4650 6600
2026-05-04 00:30 0.87 171 8110 (1973) 101 (1998) 1900 140 199 365 412 950 3160 3410 4650 6600
2026-05-03 23:30 0.87 171 8110 (1973) 101 (1998) 1900 140 199 365 412 950 3160 3410 4650 6600
2026-05-03 22:30 0.87 171 8200 (1973) 98 (1996) 1860 127 195 315 469 1230 2540 3320 4730 6170
2026-05-03 21:30 0.86 168 8200 (1973) 98 (1996) 1860 127 195 315 469 1230 2540 3320 4730 6170
2026-05-03 20:30 0.87 171 8200 (1973) 98 (1996) 1860 127 195 315 469 1230 2540 3320 4730 6170
2026-05-03 19:30 0.87 171 8200 (1973) 98 (1996) 1860 127 195 315 469 1230 2540 3320 4730 6170
2026-05-03 18:30 0.88 174 8200 (1973) 98 (1996) 1860 127 195 315 469 1230 2540 3320 4730 6170
2026-05-03 17:30 0.89 177 8200 (1973) 98 (1996) 1860 127 195 315 469 1230 2540 3320 4730 6170
2026-05-03 16:30 0.88 174 8200 (1973) 98 (1996) 1860 127 195 315 469 1230 2540 3320 4730 6170
2026-05-03 15:30 0.89 177 8200 (1973) 98 (1996) 1860 127 195 315 469 1230 2540 3320 4730 6170
2026-05-03 14:30 0.90 180 8200 (1973) 98 (1996) 1860 127 195 315 469 1230 2540 3320 4730 6170
2026-05-03 13:30 0.90 180 8200 (1973) 98 (1996) 1860 127 195 315 469 1230 2540 3320 4730 6170
2026-05-03 12:30 0.87 171 8200 (1973) 98 (1996) 1860 127 195 315 469 1230 2540 3320 4730 6170
2026-05-03 11:30 0.91 182 8200 (1973) 98 (1996) 1860 127 195 315 469 1230 2540 3320 4730 6170
2026-05-03 10:30 0.92 185 8200 (1973) 98 (1996) 1860 127 195 315 469 1230 2540 3320 4730 6170
2026-05-03 09:30 0.92 185 8200 (1973) 98 (1996) 1860 127 195 315 469 1230 2540 3320 4730 6170
2026-05-03 08:30 0.92 185 8200 (1973) 98 (1996) 1860 127 195 315 469 1230 2540 3320 4730 6170
2026-05-03 07:30 0.92 185 8200 (1973) 98 (1996) 1860 127 195 315 469 1230 2540 3320 4730 6170
2026-05-03 06:30 0.92 185 8200 (1973) 98 (1996) 1860 127 195 315 469 1230 2540 3320 4730 6170
2026-05-03 05:30 0.93 188 8200 (1973) 98 (1996) 1860 127 195 315 469 1230 2540 3320 4730 6170
2026-05-03 04:30 0.93 188 8200 (1973) 98 (1996) 1860 127 195 315 469 1230 2540 3320 4730 6170
2026-05-03 03:30 0.93 188 8200 (1973) 98 (1996) 1860 127 195 315 469 1230 2540 3320 4730 6170
2026-05-03 02:30 0.94 191 8200 (1973) 98 (1996) 1860 127 195 315 469 1230 2540 3320 4730 6170
2026-05-03 01:30 0.94 191 8200 (1973) 98 (1996) 1860 127 195 315 469 1230 2540 3320 4730 6170
2026-05-03 00:30 0.94 191 8200 (1973) 98 (1996) 1860 127 195 315 469 1230 2540 3320 4730 6170
2026-05-02 23:30 0.94 191 8200 (1973) 98 (1996) 1860 127 195 315 469 1230 2540 3320 4730 6170
2026-05-02 22:30 0.95 193 8090 (1991) 97 (1996) 1850 144 154 229 279 907 2740 3430 5510 7530
2026-05-02 21:30 0.95 193 8090 (1991) 97 (1996) 1850 144 154 229 279 907 2740 3430 5510 7530
2026-05-02 20:30 0.96 195 8090 (1991) 97 (1996) 1850 144 154 229 279 907 2740 3430 5510 7530
2026-05-02 19:30 0.96 195 8090 (1991) 97 (1996) 1850 144 154 229 279 907 2740 3430 5510 7530
2026-05-02 18:30 0.98 200 8090 (1991) 97 (1996) 1850 144 154 229 279 907 2740 3430 5510 7530
2026-05-02 17:30 0.99 202 8090 (1991) 97 (1996) 1850 144 154 229 279 907 2740 3430 5510 7530
2026-05-02 16:30 1.00 205 8090 (1991) 97 (1996) 1850 144 154 229 279 907 2740 3430 5510 7530
2026-05-02 15:30 0.97 197 8090 (1991) 97 (1996) 1850 144 154 229 279 907 2740 3430 5510 7530
2026-05-02 14:30 1.02 210 8090 (1991) 97 (1996) 1850 144 154 229 279 907 2740 3430 5510 7530
2026-05-02 13:30 1.03 213 8090 (1991) 97 (1996) 1850 144 154 229 279 907 2740 3430 5510 7530
2026-05-02 12:30 1.04 215 8090 (1991) 97 (1996) 1850 144 154 229 279 907 2740 3430 5510 7530
2026-05-02 11:30 1.07 224 8090 (1991) 97 (1996) 1850 144 154 229 279 907 2740 3430 5510 7530
2026-05-02 10:30 1.08 226 8090 (1991) 97 (1996) 1850 144 154 229 279 907 2740 3430 5510 7530
2026-05-02 09:30 1.10 232 8090 (1991) 97 (1996) 1850 144 154 229 279 907 2740 3430 5510 7530
2026-05-02 08:30 1.11 235 8090 (1991) 97 (1996) 1850 144 154 229 279 907 2740 3430 5510 7530
2026-05-02 07:30 1.13 241 8090 (1991) 97 (1996) 1850 144 154 229 279 907 2740 3430 5510 7530
2026-05-02 06:30 1.14 244 8090 (1991) 97 (1996) 1850 144 154 229 279 907 2740 3430 5510 7530
2026-05-02 05:30 1.15 247 8090 (1991) 97 (1996) 1850 144 154 229 279 907 2740 3430 5510 7530
2026-05-02 04:30 1.17 253 8090 (1991) 97 (1996) 1850 144 154 229 279 907 2740 3430 5510 7530
2026-05-02 03:30 1.19 259 8090 (1991) 97 (1996) 1850 144 154 229 279 907 2740 3430 5510 7530
2026-05-02 02:30 1.21 265 8090 (1991) 97 (1996) 1850 144 154 229 279 907 2740 3430 5510 7530
2026-05-02 01:30 1.23 271 8090 (1991) 97 (1996) 1850 144 154 229 279 907 2740 3430 5510 7530
2026-05-02 00:30 1.26 281 8090 (1991) 97 (1996) 1850 144 154 229 279 907 2740 3430 5510 7530
2026-05-01 23:30 1.28 287 8090 (1991) 97 (1996) 1850 144 154 229 279 907 2740 3430 5510 7530

A total of 88 rows are displayed for years 1970 through 2025.